Weather History for KDHT - October, 2012

Change the Weather History Date:

Tuesday, October 16, 2012

  Actual Average Record
Temperature  
Mean Temperature 61 °F 56 °F  
Max Temperature 81 °F 71 °F 90 °F (1991)
Min Temperature 40 °F 40 °F 27 °F (2001)
Degree Days  
Heating Degree Days 4 9  
Month to date heating degree days 140 116  
Since 1 July heating degree days 166 179  
Cooling Degree Days 0 0  
Month to date cooling degree days 1 8  
Year to date cooling degree days 1643 1136  
Growing Degree Days 10 (Base 50)    
Moisture  
Dew Point 31 °F    
Average Humidity 47    
Maximum Humidity 79    
Minimum Humidity 14    
Precipitation  
Precipitation 0.00 in 0.05 in 0.91 in (1984)
Month to date precipitation 0.02 0.76  
Year to date precipitation 6.35 15.76  
Snow  
Snow 0.00 in 0.00 in T in (2013)
Month to date snowfall 0.0 0.1  
Since 1 July snowfall 0.0 0.1  
Since 1 September snowfall 0.0 0.1  
Snow Depth 0.00 in    
Sea Level Pressure  
Sea Level Pressure 29.67 in    
Wind  
Wind Speed 11 mph (SW)    
Max Wind Speed 24 mph    
Max Gust Speed 31 mph    
Visibility 10 miles    
Events      
T = Trace of Precipitation, MM = Missing Value Source: NWS Daily Summary

Daily Weather History Graph

Daily Weather History Graph

Search for Another Location

Airport or City:

Trip Planner

Search our weather history database for the weather conditions in past years. The results will help you decide how hot, cold, wet, or windy it might be!

Date:

Astronomy

Oct. 16, 2012 Rise Set
Actual Time 7:58 AM CDT 7:12 PM CDT
Civil Twilight 7:32 AM CDT 7:38 PM CDT
Nautical Twilight 7:02 AM CDT 8:07 PM CDT
Astronomical Twilight 6:32 AM CDT 8:37 PM CDT
Moon 9:19 AM CDT (10/16) 8:03 PM CDT (10/16)
Length of Visible Light 12h 05m
Length of Day
11h 13m
New Moon, 2% of the Moon is Illuminated
Oct 16
New Moon
Oct 21
First Quarter
Oct 29
Full
Nov 6
Last Quarter
Nov 13
New

Hourly Weather History & Observations

Time (CDT) Temp. Windchill Dew Point Humidity Pressure Visibility Wind Dir Wind Speed Gust Speed Precip Events Conditions
12:53 AM 55.0 °F - 34.0 °F 45% 29.73 in 10.0 mi South 11.5 mph - N/A   Clear
1:53 AM 48.0 °F - 33.1 °F 56% 29.73 in 10.0 mi SSW 8.1 mph - N/A   Clear
2:53 AM 48.9 °F - 35.1 °F 59% 29.73 in 10.0 mi SW 8.1 mph - N/A   Clear
3:53 AM 43.0 °F 37.2 °F 34.0 °F 71% 29.71 in 10.0 mi SSW 10.4 mph - N/A   Clear
4:53 AM 44.6 °F 40.7 °F 35.6 °F 71% 29.82 in 10.0 mi SW 6.9 mph - N/A   Clear
5:53 AM 39.9 °F 35.8 °F 33.1 °F 77% 29.70 in 10.0 mi WSW 5.8 mph - N/A   Clear
6:53 AM 48.2 °F - 33.8 °F 58% 29.83 in 10.0 mi WNW 3.5 mph - N/A   Clear
7:53 AM 50.0 °F - 33.1 °F 52% 29.73 in 10.0 mi NNW 10.4 mph - N/A   Clear
8:53 AM 55.9 °F - 32.0 °F 40% 29.74 in 10.0 mi NNW 10.4 mph - N/A   Clear
9:53 AM 66.0 °F - 28.9 °F 25% 29.74 in 10.0 mi North 16.1 mph 25.3 mph N/A   Clear
10:53 AM 71.1 °F - 33.1 °F 25% 29.74 in 10.0 mi NNE 23.0 mph 27.6 mph N/A   Clear
11:53 AM 75.9 °F - 30.9 °F 19% 29.73 in 10.0 mi NNE 19.6 mph - N/A   Clear
12:53 PM 78.1 °F - 30.0 °F 17% 29.71 in 10.0 mi ENE 16.1 mph 23.0 mph N/A   Clear
1:07 PM 77.0 °F - 30.2 °F 18% 29.84 in 9.0 mi ENE 15.0 mph - N/A   Partly Cloudy
1:53 PM 79.0 °F - 30.0 °F 17% 29.69 in 10.0 mi NNE 10.4 mph 16.1 mph N/A   Clear
2:53 PM 80.1 °F - 28.9 °F 15% 29.64 in 10.0 mi NE 8.1 mph - N/A   Clear
3:53 PM 80.1 °F - 28.0 °F 15% 29.62 in 10.0 mi East 5.8 mph - N/A   Clear
4:53 PM 81.0 °F - 27.0 °F 14% 29.60 in 10.0 mi WSW 8.1 mph - N/A   Clear
5:53 PM 80.1 °F - 27.0 °F 14% 29.58 in 10.0 mi Variable 4.6 mph - N/A   Clear
6:53 PM 75.9 °F - 28.9 °F 18% 29.54 in 10.0 mi SSW 10.4 mph - N/A   Clear
7:53 PM 63.0 °F - 26.1 °F 25% 29.55 in 10.0 mi South 10.4 mph - N/A   Clear
8:53 PM 59.0 °F - 27.0 °F 29% 29.52 in 10.0 mi South 10.4 mph - N/A   Clear
9:53 PM 55.0 °F - 28.9 °F 37% 29.49 in 10.0 mi South 11.5 mph - N/A   Clear
10:53 PM 55.9 °F - 30.9 °F 39% 29.46 in 10.0 mi SSW 10.4 mph - N/A   Clear
11:53 PM 55.9 °F - 30.0 °F 37% 29.46 in 10.0 mi WSW 11.5 mph - N/A   Clear